This demonstration page uses our WeatherBlox Daily Observations layout. Learn more.

Left ArrowRight Arrow

Hourly Observations for February 15, 2022

Temp ( °F °C ) Dew Point ( °F °C ) Humidity (%) Winds ( mph kmh ) Pressure ( in mb ) Visibility ( mi km ) Precip ( " mm )
12:15 am 00:15 Clear 27 -2.8 13 -10.5 56 56 SE 7 11 30.13 1020 10 16 0.00 0.00
12:35 am 00:35 Clear 27 -2.6 13 -10.4 55 55 SE 8 13 30.12 1020 10 16 0.00 0.00
12:55 am 00:55 Clear 28 -2.1 14 -10.1 55 55 SE 9 15 30.11 1019 10 16 0.00 0.00
1:15 am 01:15 Clear 28 -2.3 14 -10.2 55 55 SE 9 15 30.10 1019 10 16 0.00 0.00
1:35 am 01:35 Clear 28 -2.3 14 -10 56 56 SE 8 13 30.10 1019 10 16 0.00 0.00
1:55 am 01:55 Clear 28 -2.5 14 -10 57 57 SE 9 15 30.09 1019 10 16 0.00 0.00
2:15 am 02:15 Clear 28 -2.3 14 -9.8 57 57 SE 9 15 30.08 1019 10 16 0.00 0.00
2:35 am 02:35 Clear 27 -2.7 14 -9.8 59 59 SE 10 17 30.06 1018 10 16 0.00 0.00
2:55 am 02:55 Clear 27 -2.7 15 -9.6 59 59 SE 10 17 30.05 1018 10 16 0.00 0.00
3:15 am 03:15 Clear 28 -2.1 16 -9.1 59 59 SE 12 19 30.03 1017 10 16 0.00 0.00
3:35 am 03:35 Clear 29 -1.6 16 -8.8 58 58 SE 12 19 30.01 1016 10 16 0.00 0.00
3:55 am 03:55 Clear 29 -1.4 17 -8.5 59 59 SE 13 20 30.00 1016 10 16 0.00 0.00
4:15 am 04:15 Clear 30 -1 17 -8.3 58 58 SE 10 17 29.97 1015 10 16 0.00 0.00
4:35 am 04:35 Clear 30 -1.2 17 -8.2 59 59 SE 12 19 29.98 1015 10 16 0.00 0.00
4:55 am 04:55 Clear 28 -2 17 -8.4 62 62 SE 9 15 29.97 1015 10 16 0.00 0.00
5:15 am 05:15 Clear 28 -2.5 17 -8.5 64 64 SE 7 11 29.98 1015 10 16 0.00 0.00
5:35 am 05:35 Clear 25 -3.8 16 -9.1 67 67 ESE 5 7 29.99 1016 10 16 0.00 0.00
5:55 am 05:55 Clear 25 -4 16 -9.1 68 68 SE 5 7 29.99 1016 10 16 0.00 0.00
6:15 am 06:15 Clear 24 -4.3 16 -9 70 70 SE 5 7 29.98 1015 10 16 0.00 0.00
6:35 am 06:35 Clear 24 -4.7 15 -9.4 70 70 SE 3 6 29.98 1015 10 16 0.00 0.00
6:55 am 06:55 Clear 23 -5.2 15 -9.5 72 72 SE 7 11 29.97 1015 10 16 0.00 0.00
7:15 am 07:15 Clear 21 -5.9 15 -9.7 75 75 SE 6 9 29.97 1015 10 16 0.00 0.00
7:35 am 07:35 Sunny 23 -5.1 16 -9.1 74 74 SSE 7 11 29.95 1014 10 16 0.00 0.00
7:55 am 07:55 Sunny 24 -4.6 16 -8.9 72 72 SE 6 9 29.96 1015 10 16 0.00 0.00
8:15 am 08:15 Sunny 23 -4.9 16 -9 73 73 Calm 29.96 1015 10 16 0.00 0.00
8:35 am 08:35 Sunny 26 -3.5 17 -8.1 71 71 SE 3 6 29.95 1014 10 16 0.00 0.00
8:55 am 08:55 Sunny 28 -2.4 19 -7.5 68 68 SE 6 9 29.93 1013 10 16 0.00 0.00
9:15 am 09:15 Sunny 31 -0.8 20 -6.8 64 64 SSE 7 11 29.90 1013 10 16 0.00 0.00
9:35 am 09:35 Sunny 33 0.4 21 -6.2 62 62 SSE 8 13 29.88 1012 10 16 0.00 0.00
9:55 am 09:55 Sunny 35 1.6 22 -5.8 58 58 SSE 10 17 29.86 1011 10 16 0.00 0.00
10:15 am 10:15 Sunny 37 2.9 22 -5.4 55 55 SSE 13 20 29.84 1010 10 16 0.00 0.00
10:35 am 10:35 Sunny 39 3.9 23 -5.1 52 52 SSE 14 22 29.82 1010 10 16 0.00 0.00
10:55 am 10:55 Sunny 41 5 23 -5.1 48 48 S 13 20 29.80 1009 10 16 0.00 0.00
11:15 am 11:15 Sunny 42 5.8 23 -4.9 46 46 S 12 19 29.78 1008 10 16 0.00 0.00
11:35 am 11:35 Sunny 44 6.9 23 -5 43 43 S 12 19 29.77 1008 10 16 0.00 0.00
11:55 am 11:55 Sunny 44 6.9 23 -5 43 43 S 12 19 29.76 1008 10 16 0.00 0.00
12:15 pm 12:15 Sunny 46 7.6 23 -4.9 41 41 S 10 17 29.74 1007 10 16 0.00 0.00
12:35 pm 12:35 Sunny 47 8.2 23 -5 39 39 S 10 17 29.73 1007 10 16 0.00 0.00
12:55 pm 12:55 Sunny 46 7.9 23 -5 40 40 S 7 11 29.71 1006 10 16 0.00 0.00
1:15 pm 13:15 Sunny 48 8.9 23 -5 37 37 S 10 17 29.69 1005 10 16 0.00 0.00
1:35 pm 13:35 Sunny 49 9.7 23 -4.8 36 36 S 10 17 29.68 1005 10 16 0.00 0.00
1:55 pm 13:55 Sunny 50 9.8 23 -5 35 35 S 13 20 29.67 1005 10 16 0.00 0.00
2:15 pm 14:15 Sunny 49 9.5 23 -5.1 36 36 S 10 17 29.66 1004 10 16 0.00 0.00
2:35 pm 14:35 Sunny 50 9.9 23 -4.8 35 35 S 12 19 29.65 1004 10 16 0.00 0.00
2:55 pm 14:55 Sunny 51 10.5 24 -4.5 35 35 S 12 19 29.64 1004 10 16 0.00 0.00
3:15 pm 15:15 Sunny 51 10.8 23 -4.8 33 33 S 13 20 29.63 1003 10 16 0.00 0.00
3:35 pm 15:35 Sunny 52 11.1 23 -5.1 32 32 S 15 24 29.61 1003 10 16 0.00 0.00
3:55 pm 15:55 Sunny 53 11.5 23 -5.1 31 31 S 12 19 29.60 1002 10 16 0.00 0.00
4:15 pm 16:15 Sunny 53 11.6 23 -5 31 31 S 7 11 29.60 1002 10 16 0.00 0.00
4:35 pm 16:35 Sunny 53 11.6 23 -5 31 31 S 9 15 29.60 1002 10 16 0.00 0.00
4:55 pm 16:55 Sunny 53 11.6 23 -5 31 31 SSW 3 6 29.60 1002 10 16 0.00 0.00
5:15 pm 17:15 Sunny 52 10.9 23 -5 33 33 Calm 29.60 1003 10 16 0.00 0.00
5:35 pm 17:35 Sunny 50 10 23 -5.2 34 34 WSW 3 6 29.61 1003 10 16 0.00 0.00
5:55 pm 17:55 Sunny 48 9 22 -5.5 36 36 Calm 29.62 1003 10 16 0.00 0.00
6:15 pm 18:15 Clear 48 8.7 22 -5.5 36 36 Calm 29.61 1003 10 16 0.00 0.00
6:35 pm 18:35 Clear 43 5.9 21 -6.3 42 42 Calm 29.65 1004 10 16 0.00 0.00
6:55 pm 18:55 Clear 44 6.9 22 -5.8 40 40 Calm 29.64 1004 10 16 0.00 0.00
7:15 pm 19:15 Clear 42 5.5 20 -6.4 42 42 Calm 29.66 1004 10 16 0.00 0.00
7:35 pm 19:35 Clear 39 3.9 20 -6.6 47 47 Calm 29.68 1005 10 16 0.00 0.00
7:55 pm 19:55 Clear 38 3.1 20 -6.7 49 49 Calm 29.68 1005 10 16 0.00 0.00
8:15 pm 20:15 Clear 37 2.7 19 -7.4 48 48 Calm 29.69 1005 10 16 0.00 0.00
8:35 pm 20:35 Clear 32 0.2 18 -8 54 54 W 3 6 29.71 1006 10 16 0.00 0.00
8:55 pm 20:55 Clear 34 1 18 -7.7 53 53 Calm 29.70 1006 10 16 0.00 0.00
9:15 pm 21:15 Clear 31 -0.3 17 -8.6 54 54 Calm 29.72 1006 10 16 0.00 0.00
9:35 pm 21:35 Clear 31 -0.8 17 -8.5 56 56 Calm 29.72 1006 10 16 0.00 0.00
9:55 pm 21:55 Clear 34 1 18 -7.6 53 53 Calm 29.69 1006 10 16 0.00 0.00
10:15 pm 22:15 Clear 37 2.8 21 -6.1 52 52 Calm 29.68 1005 10 16 0.00 0.00
10:35 pm 22:35 Clear 30 -1 17 -8.5 57 57 Calm 29.71 1006 10 16 0.00 0.00
10:55 pm 22:55 Clear 32 0 19 -7.5 57 57 Calm 29.69 1006 10 16 0.00 0.00
11:15 pm 23:15 Clear 28 -2 15 -9.6 56 56 Calm 29.71 1006 10 16 0.00 0.00
11:35 pm 23:35 Clear 28 -2.2 17 -8.6 62 62 Calm 29.71 1006 10 16 0.00 0.00
11:55 pm 23:55 Clear 33 0.8 20 -6.5 59 59 NNW 14 22 29.70 1006 10 16 0.00 0.00

Powered by AerisWeather